[[{"header":{"parameterUnit":"m.s-1","parameterCategory":1,"la1":30.2991,"la2":30.254,"lo1":-89.0895,"lo2":-89.0444,"dy":0.0017,"dx":0.0017,"nx":28,"ny":28,"refTime":"2024-08-01T03:00:00:Z","depth":0,"parameterNumber":2,"parameterNumberName":"U-component_of_WINDS"},"data":[0,0,0,0,0,0,0,0,0,0,0,0,0,0,0,0,0,0,0,0,0,0,0,0,0,0,0,0,0,0,0,0,0,0,0,0,0,0,0,0,0,0,0,0,0,0,0,0,0,0,0,0,0,0,0,0,0,0,3.2787,3.2787,0,3.2844,3.2844,3.2845,3.2764,3.2761,3.2758,3.2755,3.2817,3.2821,3.2826,0,0,0,0,0,0,0,0,0,0,0,0,0,3.2609,3.2612,3.2787,3.2787,3.2788,3.2844,3.2844,3.2845,3.2764,3.2761,3.2757,3.2754,3.2816,3.2821,3.2826,0,0,0,0,0,0,0,0,0,0,0,0,0,3.2678,3.2614,3.2787,3.2754,3.2752,3.2843,3.2844,3.2845,3.2765,3.276,3.2756,3.2752,3.2814,3.282,3.2827,3.2954,0,0,3.2847,3.285,0,0,0,0,0,0,0,0,3.2674,3.2685,3.2758,3.2757,3.2754,3.2792,3.2804,3.2882,3.2766,3.276,3.2755,3.275,3.2813,3.2819,3.2839,3.2957,3.2959,3.2847,3.2851,3.2854,3.2856,0,0,0,0,0,0,0,3.267,3.2682,3.2809,3.2759,3.2757,3.2737,3.2742,3.2819,3.281,3.276,3.2754,3.2762,3.2811,3.2833,3.284,3.296,3.2847,3.2853,3.2857,3.286,3.3181,3.3185,0,0,0,0,0,0,3.2668,3.2678,3.2808,3.2811,3.2703,3.2744,3.275,3.2784,3.2809,3.2808,3.2766,3.2758,3.2824,3.2833,3.2842,3.2989,3.2854,3.286,3.2864,3.3176,3.3182,3.3187,0,0,0,0,0,0,3.2665,3.2681,3.2805,3.2743,3.2757,3.2752,3.2791,3.2788,3.281,3.2813,3.2811,3.279,3.2821,3.2833,3.2925,3.299,3.2863,3.2869,3.3171,3.3178,3.3184,3.3287,0,0,0,0,0,0,3.266,3.268,3.2728,3.2745,3.2761,3.2888,3.2795,3.2792,3.2821,3.2812,3.2836,3.2835,3.2819,3.2916,3.2932,3.2997,3.2874,3.3165,3.3174,3.3182,3.3277,3.3296,3.3312,0,0,0,0,0,3.2654,3.2757,3.2731,3.2747,3.2821,3.2892,3.2901,3.2878,3.2827,3.2875,3.2876,3.2835,3.2981,3.2926,3.2943,3.3011,3.3161,3.3171,3.3181,3.327,3.3293,3.3312,0,0,0,0,0,0,3.275,3.2758,3.273,3.2841,3.2866,3.2878,3.2938,3.2904,3.2946,3.2935,3.2906,3.2912,3.3011,3.3021,3.296,3.3134,3.3062,3.3076,3.3123,3.3145,3.3162,3.3157,3.288,0,0,0,0,0,3.2784,3.2839,3.2844,3.2941,3.2955,3.2945,3.2975,3.2955,3.298,3.2991,3.2999,3.3026,3.3077,3.3112,3.316,3.3279,3.3281,3.3334,3.3351,3.3365,3.3378,3.3438,3.346,3.3221,3.3221,3.3221,0,0,3.2855,3.2866,3.2903,3.2961,3.2978,3.3036,3.2954,3.302,3.3063,3.3001,3.3087,3.3095,3.3123,3.3228,3.3275,3.3239,3.3444,3.3379,3.339,3.3395,3.3451,3.3473,3.3493,3.3228,3.3227,3.3225,0,0,3.3013,3.3028,3.3109,3.3126,3.3152,3.3144,3.3163,3.318,3.3181,3.3267,3.3221,3.3272,3.3362,3.3383,3.3405,3.3567,3.353,3.3584,3.3675,3.3733,3.3752,3.3769,3.3824,3.3844,3.3597,3.3597,3.3597,0,3.3098,3.3183,3.3155,3.3223,3.3248,3.3193,3.3273,3.3293,3.3334,3.3353,3.3312,3.3421,3.3437,3.3544,3.3583,3.3604,3.3624,3.3581,3.3752,3.3768,3.3783,3.3835,3.3856,3.3603,3.3602,3.3602,3.3601,0,3.3284,3.3344,3.3406,3.3444,3.3477,3.3552,3.3534,3.3571,3.3548,3.3544,3.363,3.3646,3.3695,3.3719,3.3699,3.3823,3.3799,3.3756,3.3683,3.3812,3.386,3.3881,3.3612,3.361,3.3608,3.3606,0,0,3.3506,3.3524,3.3548,3.3562,3.3585,3.3631,3.3702,3.3747,3.3778,3.3808,3.3865,3.3941,3.39,3.3925,3.3906,3.3958,3.4081,3.3907,3.3908,3.3937,3.4216,3.4247,3.427,3.4057,3.4061,3.4064,3.4212,0,3.3661,3.3781,3.3757,3.3875,3.3928,3.3875,3.3936,3.3957,3.3955,3.3999,3.3997,3.405,3.3993,3.4007,3.4056,3.4056,3.4137,3.4045,3.4109,3.4112,3.4101,3.4296,3.433,3.447,3.4232,3.4235,3.4237,0,3.3858,3.3892,3.4015,3.4025,3.4047,3.4103,3.414,3.4184,3.4205,3.42,3.4226,3.4196,3.4266,3.4193,3.4287,3.4226,3.425,3.4254,3.4259,3.4262,3.4181,3.4303,3.4514,3.4534,3.4267,3.4265,3.4263,0,3.4003,3.408,3.4162,3.4177,3.4193,3.4232,3.4241,3.4258,3.4285,3.4319,3.4336,3.4378,3.4401,3.4434,3.4415,3.4364,3.4512,3.4438,3.4508,3.4508,3.454,3.4538,3.4756,3.4561,3.456,3.456,3.4559,0,3.4178,3.4255,3.4227,3.4277,3.4361,3.4332,3.4415,3.4418,3.4433,3.4482,3.444,3.4488,3.4461,3.4507,3.4493,3.4572,3.4583,3.458,3.4575,3.4582,3.4582,3.4597,3.4586,3.4565,3.4564,3.4563,3.4562,0,3.4354,3.4339,3.4424,3.4431,3.4434,3.4495,3.45,3.4547,3.454,3.4603,3.4617,3.4607,3.4657,3.4642,3.4699,3.4689,3.4787,3.4772,3.4779,3.4775,3.4844,3.4837,3.5077,3.5106,3.4894,3.4896,3.4898,0,3.4465,3.4522,3.4534,3.4563,3.4573,3.4622,3.4648,3.4622,3.4652,3.4678,3.4721,3.4768,3.4803,3.4887,3.4885,3.4927,3.491,3.4991,3.4916,3.492,3.4908,3.4904,3.4908,3.5006,3.5008,3.501,3.5012,0,3.4663,3.4652,3.4692,3.4728,3.476,3.4788,3.4813,3.4839,3.4814,3.4849,3.4899,3.4927,3.4982,3.5028,3.5065,3.5074,3.5038,3.5036,3.5053,3.5061,3.5061,3.5059,3.4818,3.503,3.5028,3.5027,3.5026,3.5025,3.4808,3.4855,3.4869,3.4914,3.4928,3.4951,3.4994,3.4991,3.5032,3.5073,3.5055,3.5112,3.513,3.5176,3.5189,3.5233,3.5202,3.5229,3.5235,3.5241,3.5249,3.5056,3.524,3.524,3.5239,3.5239,3.5239,0,3.5002,3.5007,3.5049,3.5082,3.5116,3.5079,3.5102,3.5134,3.5184,3.5203,3.5237,3.5293,3.5337,3.5338,3.5378,3.5413,3.5397,3.5424,3.542,3.5422,3.5276,3.5255,3.5436,3.5436,3.5436,3.5436,3.5436,3.5435,3.5106,3.5182,3.5172,3.5253,3.5259,3.5313,3.5329,3.5349,3.5363,3.5427,3.5462,3.5461,3.5472,3.5512,3.555,3.5549,3.5565,3.5597,3.559,3.5453,3.5433,3.5414,3.5394,3.5602,3.5602,3.5732,3.5733,3.5734]},{"header":{"parameterUnit":"m.s-1","parameterCategory":1,"la1":30.2991,"la2":30.254,"lo1":-89.0895,"lo2":-89.0444,"dy":0.0017,"dx":0.0017,"nx":28,"ny":28,"refTime":"2024-08-01T03:00:00:Z","depth":0,"parameterNumber":3,"parameterNumberName":"V-component_of_WINDS"},"data":[0,0,0,0,0,0,0,0,0,0,0,0,0,0,0,0,0,0,0,0,0,0,0,0,0,0,0,0,0,0,0,0,0,0,0,0,0,0,0,0,0,0,0,0,0,0,0,0,0,0,0,0,0,0,0,0,0,0,2.7266,2.7266,0,2.7312,2.7312,2.7313,2.7289,2.7288,2.7287,2.7286,2.733,2.7332,2.7334,0,0,0,0,0,0,0,0,0,0,0,0,0,2.7154,2.7156,2.7266,2.7266,2.7267,2.7312,2.7312,2.7313,2.7289,2.7288,2.7286,2.7285,2.7329,2.7332,2.7335,0,0,0,0,0,0,0,0,0,0,0,0,0,2.7201,2.7156,2.7266,2.7261,2.7261,2.7312,2.7313,2.7313,2.729,2.7288,2.7286,2.7284,2.7328,2.7331,2.7335,2.7393,0,0,2.7345,2.7347,0,0,0,0,0,0,0,0,2.7199,2.7205,2.7261,2.7261,2.7261,2.7293,2.7289,2.734,2.729,2.7279,2.7285,2.7283,2.7319,2.7323,2.7335,2.7395,2.7397,2.7346,2.7348,2.7349,2.735,0,0,0,0,0,0,0,2.7195,2.7203,2.7284,2.7262,2.7262,2.7255,2.726,2.7299,2.7308,2.7279,2.7278,2.7284,2.7319,2.7332,2.7336,2.7397,2.7346,2.7349,2.7351,2.7352,2.7504,2.7506,0,0,0,0,0,0,2.7193,2.7201,2.7283,2.7285,2.7225,2.7258,2.7264,2.7285,2.7308,2.731,2.7285,2.7282,2.7327,2.7332,2.7338,2.7405,2.7349,2.7353,2.7355,2.7502,2.7505,2.7507,0,0,0,0,0,0,2.719,2.72,2.7281,2.7243,2.7252,2.7262,2.7286,2.7286,2.73,2.7312,2.7313,2.7298,2.7326,2.7333,2.7379,2.7407,2.7354,2.7357,2.75,2.7503,2.7506,2.7542,0,0,0,0,0,0,2.7187,2.72,2.7223,2.7243,2.7254,2.7322,2.7288,2.7289,2.7306,2.7303,2.7324,2.7326,2.7325,2.7374,2.7382,2.7411,2.736,2.7498,2.7501,2.7505,2.7539,2.7546,2.7553,0,0,0,0,0,2.7183,2.7231,2.7224,2.7234,2.7284,2.7324,2.733,2.7329,2.7309,2.7331,2.7339,2.7325,2.7403,2.7379,2.7388,2.7418,2.7496,2.75,2.7505,2.7536,2.7545,2.7553,0,0,0,0,0,0,2.7213,2.7234,2.7226,2.7282,2.7302,2.732,2.7348,2.7339,2.7364,2.736,2.7357,2.7361,2.7409,2.7418,2.7391,2.7474,2.7446,2.7452,2.7466,2.7475,2.7482,2.7478,2.7363,0,0,0,0,0,2.7226,2.7258,2.7274,2.7322,2.7332,2.7339,2.7356,2.7354,2.7373,2.7381,2.7392,2.7411,2.7439,2.7458,2.7485,2.754,2.7543,2.7565,2.7572,2.7578,2.7583,2.7611,2.762,2.7521,2.7521,2.7521,0,0,2.7253,2.7268,2.7289,2.7328,2.7343,2.7375,2.7346,2.7381,2.7404,2.7386,2.743,2.7439,2.7459,2.751,2.7533,2.7519,2.7611,2.7583,2.7588,2.759,2.7616,2.7626,2.7634,2.7524,2.7524,2.7523,0,0,2.7318,2.7334,2.7375,2.739,2.7413,2.7417,2.7427,2.7447,2.7452,2.7496,2.7483,2.7509,2.7559,2.7573,2.7587,2.7657,2.7645,2.7666,2.7702,2.7729,2.7737,2.7744,2.7767,2.7775,2.7671,2.7671,2.7671,0,2.7349,2.7398,2.7397,2.7433,2.745,2.7436,2.7476,2.749,2.752,2.7532,2.7516,2.7577,2.759,2.7642,2.7659,2.7672,2.7681,2.7663,2.7736,2.7743,2.7749,2.7771,2.778,2.7674,2.7673,2.7673,2.7673,0,2.7433,2.7467,2.7497,2.7527,2.7547,2.7585,2.7588,2.7609,2.7604,2.7609,2.7653,2.7668,2.7697,2.771,2.7706,2.7762,2.7752,2.7737,2.7708,2.7761,2.7781,2.779,2.7677,2.7676,2.7675,2.7675,0,0,2.7518,2.7547,2.7557,2.757,2.7594,2.7619,2.7656,2.7685,2.7701,2.7722,2.7751,2.7793,2.7778,2.7794,2.7791,2.7816,2.7868,2.7797,2.7797,2.7808,2.7928,2.7938,2.7948,2.786,2.7862,2.7863,2.7926,0,2.7584,2.7649,2.7648,2.7708,2.7738,2.7724,2.7756,2.7773,2.7778,2.7803,2.7809,2.7838,2.7817,2.7826,2.785,2.7856,2.7891,2.7852,2.7885,2.7887,2.7879,2.7959,2.7971,2.8029,2.7934,2.7935,2.7936,0,2.7669,2.7693,2.7756,2.7773,2.7786,2.7815,2.784,2.7865,2.7883,2.7886,2.7903,2.7896,2.7931,2.7903,2.795,2.7923,2.7937,2.7942,2.7944,2.7946,2.7914,2.7962,2.8048,2.8056,2.7949,2.7948,2.7947,0,2.7722,2.777,2.7814,2.7825,2.7848,2.7868,2.7878,2.7895,2.7911,2.7933,2.7944,2.797,2.7983,2.8003,2.8002,2.7982,2.805,2.8021,2.8051,2.8051,2.8065,2.8063,2.8153,2.8076,2.8076,2.8076,2.8076,0,2.7795,2.7833,2.7838,2.7864,2.7906,2.7905,2.7946,2.7954,2.7969,2.7995,2.7985,2.801,2.8009,2.8033,2.8033,2.8071,2.8078,2.8079,2.8079,2.808,2.8079,2.8087,2.8083,2.8078,2.8078,2.8077,2.8077,0,2.7861,2.7866,2.7912,2.7929,2.7934,2.7964,2.7979,2.8003,2.8007,2.8041,2.8049,2.8055,2.8084,2.8086,2.8118,2.8118,2.8164,2.816,2.8158,2.8157,2.8185,2.8182,2.8281,2.8294,2.8211,2.8212,2.8212,0,2.7906,2.7935,2.7956,2.7973,2.7984,2.8013,2.803,2.8029,2.8047,2.807,2.8091,2.8119,2.8141,2.8186,2.8193,2.8218,2.8213,2.8246,2.8216,2.8216,2.8211,2.8209,2.8211,2.8251,2.8252,2.8253,2.8254,0,2.7985,2.7985,2.8011,2.8037,2.8058,2.8079,2.8098,2.8112,2.8114,2.8134,2.8163,2.8181,2.8214,2.8241,2.8265,2.8273,2.8263,2.8263,2.8271,2.8271,2.8268,2.8268,2.8172,2.826,2.826,2.8259,2.8259,2.8259,2.804,2.8065,2.8083,2.8111,2.8126,2.8143,2.8167,2.8174,2.8199,2.8226,2.8225,2.8256,2.8273,2.8304,2.8314,2.8338,2.8327,2.8338,2.8341,2.8344,2.8346,2.8266,2.8343,2.8343,2.8342,2.8342,2.8342,0,2.8117,2.8128,2.8154,2.8181,2.8203,2.8193,2.8213,2.8231,2.826,2.8277,2.8298,2.8331,2.8357,2.8366,2.839,2.8408,2.8403,2.8414,2.8412,2.8413,2.8356,2.8346,2.8417,2.8417,2.8417,2.8417,2.8417,2.8417,2.8159,2.8199,2.8202,2.8249,2.826,2.8291,2.8303,2.8319,2.8332,2.8369,2.8391,2.8397,2.841,2.8435,2.8458,2.846,2.8468,2.848,2.848,2.8425,2.8418,2.8411,2.8401,2.8483,2.8483,2.8536,2.8536,2.8537]}]]